RH
12 20 26 32 59 58 58 73 73 63 82 94 74 66 92 100 100 100 100 100 100 100 100 100 100 100 100 100 100 100 100 100 100 100 100 100 100 100 100 100 100 100 100 100
13 20 29 35 56 75 65 51 100 95 100 100 100 79 80 82 100 98 100 100 100 100 100 100 100 100 100 100 100 100 100 100 100 100 100 100 100 100 100 100 100 100 100 100
17 19 21 26 23 25 36 37 35 96 87 77 66 71 69 84 89 80 100 99 100 100 97 98 95 99 98 100 100 100 100 94 100 100 100 100 100 100 100 100 100 100 100 100
17 20 19 24 26 34 38 40 40 35 50 53 57 57 42 44 54 57 76 81 96 98 99 100 100 100 100 100 100 100 89 82 80 91 92 97 100 95 95 94 100 100 100 100
20 18 15 14 14 15 14 16 23 34 49 63 71 81 67 51 54 64 79 85 93 88 91 92 91 99 97 99 100 96 91 100 91 99 100 98 98 91 95 99 99 100 100 100
29 28 29 30 26 26 24 20 17 15 17 24 33 41 62 76 84 96 98 94 97 94 96 74 78 92 99 89 88 90 96 100 100 100 100 99 99 100 100 100 100 98 98 94
39 37 33 36 36 37 37 34 34 32 31 32 31 28 26 29 38 56 73 90 96 99 98 89 85 85 93 86 87 80 71 67 58 53 55 55 63 79 66 66 71 63 58 65
46 44 43 44 45 44 41 42 43 43 41 40 41 40 43 41 44 48 54 60 59 54 50 46 39 41 41 42 39 42 44 42 38 38 42 42 38 38 42 43 41 39 36 35
58 58 55 57 56 55 58 58 56 58 57 56 57 56 54 50 53 52 49 45 45 43 43 46 43 43 45 47 53 51 51 51 52 52 48 46 44 40 38 35 34 31 28 23
67 64 62 59 57 56 55 55 55 53 52 50 50 47 46 48 50 48 46 47 50 50 48 50 51 52 51 50 48 49 50 55 56 53 51 61 53 56 51 56 42 34 22 11
87 85 83 79 76 70 68 65 63 63 63 59 52 49 49 49 50 48 48 50 50 46 43 41 44 45 47 49 48 49 54 62 62 72 73 69 65 65 71 69 49 38 18 7
78 74 74 77 79 81 81 79 76 73 69 67 64 60 56 54 48 49 51 54 48 46 43 40 43 48 55 55 58 59 65 61 67 71 72 71 73 72 74 63 47 27 8 4
65 69 70 69 70 70 70 74 78 74 72 73 69 64 61 59 60 60 59 52 54 59 64 68 68 75 76 68 64 65 62 67 70 67 73 74 73 76 80 72 45 16 5 4
59 63 64 63 69 69 71 70 72 76 80 81 74 70 68 63 60 62 60 67 69 80 81 69 70 80 72 75 65 62 63 67 74 69 77 68 76 80 74 62 46 14 5 4
75 73 76 69 70 74 78 78 75 71 72 76 79 71 70 64 67 74 80 83 85 87 79 74 70 74 76 76 68 68 68 68 72 69 74 72 75 85 68 48 26 8 6 4
82 79 70 74 64 62 69 68 76 91 89 86 81 74 84 86 84 88 98 99 96 94 83 82 79 80 76 78 77 71 70 71 71 72 79 82 77 79 65 41 18 6 5 4
75 71 70 83 73 70 66 66 67 72 85 91 86 80 98 100 100 100 100 84 89 100 100 99 79 82 92 89 88 79 73 75 73 74 86 68 78 73 65 38 14 6 5 4
75 69 77 78 75 76 79 77 69 66 71 79 84 88 85 94 98 100 94 97 100 99 99 98 100 98 81 86 94 85 77 83 74 74 82 72 72 68 60 34 9 6 5 4
76 64 65 78 80 88 98 95 96 88 76 80 88 96 100 100 100 99 100 100 100 97 90 86 83 87 90 94 97 84 81 84 79 79 82 70 70 63 55 29 8 6 4 4
86 86 70 67 64 69 88 91 88 100 100 98 95 99 100 100 100 100 100 100 100 99 99 95 94 100 100 100 93 81 79 87 81 85 83 66 69 61 51 26 7 6 4 4
54 98 97 73 74 72 66 69 80 87 94 100 100 99 94 91 99 100 99 95 99 100 99 96 100 99 99 89 91 84 82 90 86 83 88 67 70 59 46 21 7 6 4 4
24 34 56 97 95 78 82 86 71 68 78 84 100 100 100 98 95 91 85 82 94 93 92 98 99 97 90 93 85 86 89 92 87 90 79 73 70 62 45 21 7 5 5 4
15 20 30 31 55 90 92 94 97 92 77 69 85 96 100 100 100 100 86 92 98 94 100 100 100 100 94 88 84 92 98 96 91 91 80 76 65 59 41 19 7 5 5 5
17 12 16 23 29 32 54 81 93 98 96 97 87 80 98 100 100 100 100 100 100 100 100 100 100 99 98 90 95 100 100 97 97 90 78 73 62 53 36 15 7 6 6 5
18 12 10 12 17 21 24 29 50 89 95 95 91 88 85 88 98 100 100 100 100 100 100 100 100 100 100 99 91 100 99 94 94 82 74 70 60 49 31 12 7 6 6 5
16 12 9 9 12 15 19 20 22 32 56 92 90 81 78 87 96 99 100 100 100 100 100 99 98 99 100 99 95 99 98 96 90 81 75 69 59 46 26 10 6 6 6 5
12 11 8 8 8 10 13 15 18 24 35 55 84 99 100 96 98 100 100 100 100 100 100 100 98 100 100 99 94 99 96 97 83 79 70 63 53 39 21 8 6 6 7 5
Wind_Speed
17 18 20 20 27 27 29 32 47 52 57 57 53 56 58 60 63 61 62 56 58 60 59 62 59 54 56 56 64 61 70 82 78 69 82 76 82 91 94 97 101 106 108 108
16 16 16 20 23 27 23 33 56 55 59 52 51 54 59 59 60 60 64 63 67 64 63 61 60 61 62 62 65 69 72 72 79 83 79 80 78 79 81 86 88 95 97 105
19 25 19 14 9 11 17 21 36 57 59 57 52 51 55 62 62 61 63 60 61 61 64 65 65 63 64 64 65 65 70 71 78 76 79 80 86 89 95 104 109 108 110 115
22 20 20 21 21 19 16 10 14 11 50 50 51 53 48 48 53 58 65 65 61 59 57 53 58 55 58 63 68 69 74 80 85 92 95 98 100 105 111 111 105 105 110 109
34 31 27 27 24 24 22 19 16 12 10 21 50 49 54 49 51 56 64 64 61 56 58 60 60 64 63 61 62 67 69 71 77 77 78 80 88 96 100 105 106 107 119 125
37 37 36 35 33 32 31 30 26 20 17 14 10 10 32 50 52 49 53 58 51 58 54 55 63 60 62 60 62 65 65 71 77 81 83 90 95 104 109 111 120 125 130 131
35 33 30 32 32 31 30 31 30 29 25 23 21 18 15 13 5 15 39 51 48 45 47 55 56 69 67 62 70 66 62 54 51 60 57 66 76 77 71 73 84 89 105 113
26 26 25 26 27 25 25 26 25 23 20 19 18 19 18 15 12 9 3 8 16 19 20 22 20 21 25 28 26 30 37 43 45 52 60 63 67 69 76 88 93 102 104 109
17 16 18 18 18 18 18 18 17 17 16 14 13 11 11 9 8 9 8 4 3 5 8 11 14 18 20 23 24 25 32 35 43 49 53 56 61 65 70 75 79 82 87 91
5 6 6 6 7 7 6 6 5 3 3 3 4 4 1 2 4 5 6 9 7 7 10 13 16 17 21 23 26 32 37 43 48 49 54 61 64 69 76 81 81 82 87 89
4 4 3 3 3 2 2 2 3 3 3 4 6 6 6 7 7 7 6 9 11 13 13 15 17 22 25 30 37 41 47 52 58 63 65 71 74 80 85 92 90 93 91 87
4 4 5 6 7 8 8 7 7 6 5 7 9 12 13 13 13 13 13 13 14 14 19 22 26 31 38 40 48 54 59 61 62 67 73 77 82 87 94 97 98 97 88 79
9 9 8 9 9 9 9 10 11 10 11 12 13 14 16 17 17 18 19 21 23 27 34 39 43 46 49 52 55 59 61 68 68 73 79 84 84 90 98 105 104 95 85 76
14 12 11 10 11 12 13 13 13 14 15 16 17 18 19 20 21 22 24 28 33 37 41 44 46 50 53 59 62 66 69 72 78 82 85 88 90 97 100 102 103 96 84 72
25 23 20 17 14 12 12 13 14 16 17 18 20 21 22 23 25 27 31 35 39 42 46 49 52 55 59 63 67 71 74 76 82 87 87 92 94 102 103 103 98 87 80 74
34 35 32 30 28 26 24 22 21 21 22 24 26 27 28 30 32 34 37 41 44 47 50 54 57 62 65 67 71 75 79 83 86 89 94 97 98 102 105 102 96 84 77 71
42 39 35 38 37 36 36 33 33 32 32 32 32 33 33 35 37 39 41 45 47 51 55 60 64 66 69 74 78 78 83 86 89 91 96 99 99 102 106 101 92 83 76 69
52 49 45 44 41 40 38 40 42 41 40 39 40 40 40 40 41 45 48 51 53 55 58 60 65 71 73 76 79 82 86 89 93 94 97 103 102 103 106 102 89 81 75 68
62 62 56 54 53 50 48 46 44 45 46 46 46 47 48 49 51 53 55 56 57 61 63 65 68 71 77 79 83 86 89 91 95 97 100 103 105 104 105 101 88 80 73 67
73 72 68 66 62 59 56 55 53 49 49 51 53 53 54 55 56 57 57 59 60 63 65 68 71 74 78 81 85 88 89 95 97 98 102 102 106 103 105 101 87 80 72 65
72 79 79 76 74 69 67 62 59 56 54 54 55 57 57 56 57 59 60 60 60 64 66 69 74 77 81 84 88 91 91 96 100 100 101 105 104 103 104 99 86 78 70 65
66 71 77 83 85 81 77 74 70 65 62 61 60 59 59 60 62 62 63 65 67 68 69 72 77 81 85 87 90 91 94 99 101 105 103 105 103 104 104 99 87 78 70 64
66 71 74 76 81 86 86 83 81 78 73 67 64 63 64 64 64 66 68 69 70 70 71 74 79 83 87 89 92 95 97 103 103 107 103 105 102 103 102 97 86 77 69 63
65 69 71 77 80 81 83 87 87 85 83 80 76 72 69 69 70 72 73 74 74 75 75 77 81 84 90 92 94 98 99 103 106 107 103 104 102 102 100 93 83 74 68 62
60 65 70 71 77 80 80 80 84 89 88 87 84 80 77 76 72 72 75 78 78 79 80 81 84 87 91 95 96 99 102 104 105 105 104 102 101 99 98 90 80 71 66 60
64 66 67 69 71 75 79 79 79 81 84 89 89 86 81 80 80 81 82 82 83 84 86 88 89 91 92 96 99 101 104 105 103 105 103 99 100 99 95 87 77 68 63 58
67 65 67 69 69 70 73 75 75 76 78 82 86 89 90 89 87 86 86 86 86 88 89 89 91 91 95 98 102 103 104 104 105 104 99 97 98 96 91 83 73 66 60 56
Wind_Direction
127 139 146 150 139 141 142 158 173 177 175 178 183 188 184 186 188 187 187 184 189 192 195 201 206 204 212 212 214 218 219 218 225 229 236 241 243 246 249 252 256 258 260 263
92 123 142 153 152 153 153 152 178 189 180 184 191 194 194 194 195 192 199 200 199 196 201 201 210 217 221 221 225 226 228 230 231 236 241 245 248 252 257 258 257 260 261 265
66 65 82 89 151 140 172 171 171 190 188 195 201 201 207 203 203 200 199 202 205 211 215 217 222 226 228 231 235 239 239 238 238 244 249 253 257 259 259 260 259 262 266 266
77 78 89 102 103 96 92 128 194 193 205 209 209 214 217 223 221 216 211 212 207 211 214 217 224 227 231 234 239 241 244 243 245 246 249 252 254 257 257 262 266 266 267 267
75 77 80 86 89 93 94 101 115 135 152 199 217 226 223 228 234 234 220 224 219 225 227 229 235 236 243 247 249 252 256 261 260 260 261 262 261 262 265 266 268 269 269 269
74 79 80 78 81 85 88 89 91 99 107 119 150 211 238 244 238 245 238 237 232 235 241 246 247 245 247 251 256 255 259 264 263 263 263 266 267 268 269 273 268 268 270 274
78 77 76 75 76 75 78 80 81 82 78 75 75 74 66 57 47 258 253 252 258 255 258 264 261 264 269 269 269 269 276 278 281 277 279 278 280 274 260 276 274 273 274 273
67 71 72 72 72 72 71 68 70 76 84 90 85 79 66 64 59 64 68 254 262 269 273 276 276 281 281 281 279 282 282 282 278 275 281 282 278 277 277 278 276 275 277 277
61 61 60 61 64 61 59 59 58 59 58 64 75 79 72 73 75 90 100 139 212 240 251 256 265 269 274 270 279 288 302 288 283 287 293 293 290 293 294 295 294 293 292 289
65 73 75 87 87 82 83 83 89 74 31 45 94 71 95 99 128 153 193 226 244 264 253 265 259 260 276 291 303 306 308 314 322 311 318 324 317 322 318 320 312 309 303 297
331 318 307 288 280 273 268 216 222 251 261 244 241 240 254 239 262 261 268 256 275 264 286 295 297 308 313 321 321 322 326 328 331 332 332 333 330 330 329 327 321 319 314 309
301 293 281 277 274 275 272 272 287 295 291 285 283 280 281 285 285 299 294 294 290 297 301 312 316 318 326 327 331 333 335 333 332 333 336 337 336 334 333 328 325 322 315 313
283 285 292 281 278 272 263 259 265 272 275 280 280 280 283 288 294 301 305 309 322 327 328 330 332 332 330 332 330 331 335 334 332 335 336 337 339 339 336 332 329 324 318 316
266 265 273 271 274 282 275 274 274 276 278 282 285 291 297 304 303 307 315 322 326 327 326 326 328 330 328 329 330 329 333 333 334 335 337 338 339 340 336 333 332 327 320 317
269 267 267 265 260 264 275 278 277 277 281 289 295 298 299 306 314 317 317 318 319 320 321 323 324 326 326 327 329 330 333 332 333 334 337 338 339 339 335 333 333 328 323 319
274 274 272 273 271 267 268 269 271 276 280 285 291 297 303 308 312 314 316 315 316 315 315 316 320 322 324 323 326 330 332 334 333 336 337 338 338 339 335 333 334 329 325 322
274 272 275 267 274 278 280 278 278 278 281 287 290 293 298 300 303 302 301 301 305 310 312 312 314 318 319 321 322 327 330 332 332 335 337 338 338 337 335 334 335 330 327 323
266 266 267 272 274 275 280 282 281 282 281 283 286 287 288 289 291 294 297 299 302 302 304 307 308 311 316 318 319 325 328 330 331 332 337 338 338 337 334 334 335 332 329 325
265 266 265 264 268 269 272 276 280 278 275 276 279 281 283 286 288 291 295 298 299 300 303 305 307 310 315 317 319 323 328 330 330 333 336 336 336 336 333 333 335 332 331 327
263 264 266 266 266 266 265 268 271 274 276 275 277 281 281 282 283 286 290 293 297 299 303 305 310 313 316 317 319 324 327 329 329 334 334 335 335 334 333 333 335 333 331 328
262 259 262 264 265 266 266 265 265 266 271 277 277 276 280 283 284 285 288 292 295 298 301 306 309 313 315 317 320 323 326 328 329 332 333 335 334 333 332 333 335 333 332 329
272 263 260 259 262 265 265 267 267 266 268 269 272 275 277 281 283 284 286 288 294 298 303 305 307 309 312 316 319 322 324 326 330 331 332 334 333 333 331 332 335 333 332 330
282 272 263 261 260 260 261 263 266 268 269 269 270 272 274 276 280 284 286 289 293 297 300 302 305 308 310 313 319 320 322 325 328 329 330 332 332 331 330 332 334 333 332 330
284 279 273 264 260 259 260 260 261 263 267 269 271 270 272 276 278 282 286 288 290 294 298 300 303 306 308 312 317 318 320 323 325 327 329 330 331 330 330 331 333 332 331 330
289 279 276 271 266 263 259 260 262 261 263 266 268 270 272 273 278 282 284 286 290 293 296 298 301 304 306 310 315 316 318 321 324 326 328 329 329 328 329 331 332 331 331 330
289 284 276 271 268 265 263 261 261 263 264 264 265 268 271 274 277 278 281 284 289 292 295 298 300 302 306 307 312 314 316 319 322 324 326 327 328 327 328 330 330 330 329 329
287 281 278 273 268 267 265 263 262 262 263 264 265 266 268 270 273 276 280 283 286 289 292 295 298 301 302 306 309 312 314 316 319 322 325 326 326 326 328 329 328 328 328 327